Time,TemperatureF,DewpointF,PressureIn,WindDirection,WindDirectionDegrees,WindSpeedMPH,WindSpeedGustMPH,Humidity,HourlyPrecipIn,Conditions,Clouds,dailyrainin,SoftwareType,DateUTC
2013-03-11 00:02:00,65.0,43.0,29.41,NE,56,2.0,7.0,44,0.00,,,0.00,,2013-03-11 00:02:00,
2013-03-11 00:12:00,65.0,43.0,29.41,NE,56,2.0,7.0,44,0.00,,,0.00,,2013-03-11 00:12:00,
2013-03-11 00:23:00,64.0,42.0,29.41,NNW,337,0.0,1.0,45,0.00,,,0.00,,2013-03-11 00:23:00,
2013-03-11 00:33:00,63.0,42.0,29.41,SSE,157,2.0,3.0,46,0.00,,,0.00,,2013-03-11 00:33:00,
2013-03-11 00:43:00,63.0,42.0,29.41,SSE,157,2.0,3.0,46,0.00,,,0.00,,2013-03-11 00:43:00,
2013-03-11 00:53:00,62.0,41.0,29.41,NE,45,0.0,4.0,46,0.00,,,0.00,,2013-03-11 00:53:00,
2013-03-11 01:03:00,61.0,41.0,29.41,NNW,337,0.0,1.0,47,0.00,,,0.00,,2013-03-11 01:03:00,
2013-03-11 01:13:00,61.0,41.0,29.41,NNW,337,0.0,1.0,47,0.00,,,0.00,,2013-03-11 01:13:00,
2013-03-11 01:23:00,60.0,40.0,29.42,South,180,2.0,2.0,48,0.00,,,0.00,,2013-03-11 01:23:00,
2013-03-11 01:32:00,59.0,40.0,29.42,SE,135,0.0,0.0,50,0.00,,,0.00,,2013-03-11 01:32:00,
2013-03-11 01:42:00,59.0,40.0,29.42,SE,135,0.0,0.0,50,0.00,,,0.00,,2013-03-11 01:42:00,
2013-03-11 01:53:00,58.0,40.0,29.42,SSE,157,0.0,0.0,51,0.00,,,0.00,,2013-03-11 01:53:00,
2013-03-11 02:02:00,57.0,40.0,29.42,NE,44,1.0,2.0,53,0.00,,,0.00,,2013-03-11 02:02:00,
2013-03-11 02:12:00,57.0,40.0,29.42,NE,44,1.0,2.0,53,0.00,,,0.00,,2013-03-11 02:12:00,
2013-03-11 02:23:00,57.0,40.0,29.43,ENE,67,0.0,0.0,53,0.00,,,0.00,,2013-03-11 02:23:00,
2013-03-11 02:32:00,56.0,40.0,29.43,North,0,2.0,2.0,55,0.00,,,0.00,,2013-03-11 02:32:00,
2013-03-11 02:42:00,56.0,40.0,29.43,North,0,2.0,2.0,55,0.00,,,0.00,,2013-03-11 02:42:00,
2013-03-11 02:53:00,55.0,40.0,29.43,SSE,157,0.0,0.0,56,0.00,,,0.00,,2013-03-11 02:53:00,
2013-03-11 03:02:00,55.0,40.0,29.42,ESE,112,0.0,0.0,57,0.00,,,0.00,,2013-03-11 03:02:00,
2013-03-11 03:12:00,55.0,40.0,29.42,ESE,112,0.0,0.0,57,0.00,,,0.00,,2013-03-11 03:12:00,
2013-03-11 03:22:00,53.0,39.0,29.43,ESE,112,0.0,0.0,58,0.00,,,0.00,,2013-03-11 03:22:00,
2013-03-11 03:32:00,52.0,39.0,29.42,South,180,0.0,0.0,60,0.00,,,0.00,,2013-03-11 03:32:00,
2013-03-11 03:42:00,52.0,39.0,29.42,South,180,0.0,0.0,60,0.00,,,0.00,,2013-03-11 03:42:00,
2013-03-11 03:53:00,51.0,38.0,29.42,South,180,0.0,0.0,62,0.00,,,0.00,,2013-03-11 03:53:00,
2013-03-11 04:02:00,51.0,39.0,29.42,South,180,0.0,0.0,63,0.00,,,0.00,,2013-03-11 04:02:00,
2013-03-11 04:12:00,51.0,39.0,29.42,South,180,0.0,0.0,63,0.00,,,0.00,,2013-03-11 04:12:00,
2013-03-11 04:22:00,50.0,39.0,29.42,NNW,337,0.0,0.0,65,0.00,,,0.00,,2013-03-11 04:22:00,
2013-03-11 04:32:00,49.0,39.0,29.42,NNW,337,0.0,0.0,67,0.00,,,0.00,,2013-03-11 04:32:00,
2013-03-11 04:42:00,49.0,39.0,29.42,NNW,337,0.0,0.0,67,0.00,,,0.00,,2013-03-11 04:42:00,
2013-03-11 04:53:00,49.0,39.0,29.41,NNW,337,0.0,0.0,67,0.00,,,0.00,,2013-03-11 04:53:00,
2013-03-11 05:03:00,49.0,39.0,29.41,NNW,337,0.0,0.0,68,0.00,,,0.00,,2013-03-11 05:03:00,
2013-03-11 05:12:00,49.0,39.0,29.41,NNW,337,0.0,0.0,68,0.00,,,0.00,,2013-03-11 05:12:00,
2013-03-11 05:22:00,49.0,39.0,29.41,SSW,202,0.0,0.0,69,0.00,,,0.00,,2013-03-11 05:22:00,
2013-03-11 05:32:00,49.0,40.0,29.41,ESE,112,0.0,0.0,72,0.00,,,0.00,,2013-03-11 05:32:00,
2013-03-11 05:43:00,49.0,40.0,29.41,ESE,112,0.0,0.0,72,0.00,,,0.00,,2013-03-11 05:43:00,
2013-03-11 05:52:00,52.0,44.0,29.41,ENE,67,2.0,2.0,73,0.00,,,0.00,,2013-03-11 05:52:00,
2013-03-11 06:02:00,54.0,45.0,29.41,South,180,4.0,4.0,72,0.00,,,0.00,,2013-03-11 06:02:00,
2013-03-11 06:12:00,54.0,45.0,29.41,South,180,4.0,4.0,72,0.00,,,0.00,,2013-03-11 06:12:00,
2013-03-11 06:22:00,55.0,46.0,29.41,WSW,247,4.0,4.0,72,0.00,,,0.00,,2013-03-11 06:22:00,
2013-03-11 06:32:00,55.0,46.0,29.40,North,0,0.0,0.0,72,0.00,,,0.00,,2013-03-11 06:32:00,
2013-03-11 06:42:00,55.0,46.0,29.40,North,0,0.0,0.0,72,0.00,,,0.00,,2013-03-11 06:42:00,
2013-03-11 06:53:00,56.0,47.0,29.40,SSE,157,0.0,9.0,73,0.00,,,0.00,,2013-03-11 06:53:00,
2013-03-11 07:03:00,56.0,47.0,29.39,NE,45,1.0,5.0,73,0.00,,,0.00,,2013-03-11 07:03:00,
2013-03-11 07:12:00,56.0,48.0,29.38,SE,135,1.0,4.0,75,0.00,,,0.00,,2013-03-11 07:12:00,
2013-03-11 07:22:00,56.0,48.0,29.38,SE,135,1.0,4.0,75,0.00,,,0.00,,2013-03-11 07:22:00,
2013-03-11 07:32:00,56.0,48.0,29.37,West,270,5.0,5.0,75,0.00,,,0.00,,2013-03-11 07:32:00,
2013-03-11 07:42:00,56.0,48.0,29.37,West,270,5.0,5.0,75,0.00,,,0.00,,2013-03-11 07:42:00,
2013-03-11 07:52:00,57.0,49.0,29.36,North,0,3.0,3.0,75,0.00,,,0.00,,2013-03-11 07:52:00,
2013-03-11 08:02:00,56.0,49.0,29.36,NNE,32,2.0,3.0,76,0.00,,,0.00,,2013-03-11 08:02:00,
2013-03-11 08:12:00,56.0,49.0,29.36,NNE,32,2.0,3.0,76,0.00,,,0.00,,2013-03-11 08:12:00,
2013-03-11 08:22:00,56.0,49.0,29.36,SW,225,2.0,10.0,77,0.00,,,0.00,,2013-03-11 08:22:00,
2013-03-11 08:32:00,56.0,49.0,29.35,South,180,0.0,2.0,77,0.00,,,0.00,,2013-03-11 08:32:00,
2013-03-11 08:42:00,56.0,49.0,29.35,South,180,0.0,2.0,77,0.00,,,0.00,,2013-03-11 08:42:00,
2013-03-11 08:52:00,56.0,49.0,29.36,West,270,2.0,3.0,78,0.00,,,0.00,,2013-03-11 08:52:00,
2013-03-11 09:02:00,56.0,49.0,29.36,North,0,1.0,1.0,78,0.00,,,0.00,,2013-03-11 09:02:00,
2013-03-11 09:12:00,56.0,49.0,29.36,North,0,1.0,1.0,78,0.00,,,0.00,,2013-03-11 09:12:00,
2013-03-11 09:23:00,56.0,49.0,29.37,NW,315,3.0,6.0,78,0.00,,,0.00,,2013-03-11 09:23:00,
2013-03-11 09:32:00,56.0,49.0,29.37,SW,225,2.0,2.0,78,0.00,,,0.00,,2013-03-11 09:32:00,
2013-03-11 09:42:00,56.0,49.0,29.37,SW,225,2.0,2.0,78,0.00,,,0.00,,2013-03-11 09:42:00,
2013-03-11 09:52:00,56.0,49.0,29.38,NW,306,2.0,3.0,78,0.00,,,0.00,,2013-03-11 09:52:00,
2013-03-11 10:02:00,56.0,49.0,29.38,ENE,67,0.0,3.0,78,0.00,,,0.00,,2013-03-11 10:02:00,
2013-03-11 10:12:00,56.0,49.0,29.38,ENE,67,0.0,3.0,78,0.00,,,0.00,,2013-03-11 10:12:00,
2013-03-11 10:22:00,56.0,50.0,29.37,NNW,328,3.0,6.0,79,0.00,,,0.00,,2013-03-11 10:22:00,
2013-03-11 10:32:00,56.0,50.0,29.37,NE,55,2.0,2.0,79,0.00,,,0.00,,2013-03-11 10:32:00,
2013-03-11 10:42:00,56.0,50.0,29.37,NE,55,2.0,2.0,79,0.00,,,0.00,,2013-03-11 10:42:00,
2013-03-11 10:52:00,56.0,50.0,29.37,WSW,243,2.0,4.0,79,0.00,,,0.00,,2013-03-11 10:52:00,
2013-03-11 11:02:00,57.0,51.0,29.36,South,180,2.0,2.0,80,0.00,,,0.00,,2013-03-11 11:02:00,
2013-03-11 11:12:00,57.0,51.0,29.36,South,180,2.0,2.0,80,0.00,,,0.00,,2013-03-11 11:12:00,
2013-03-11 11:22:00,57.0,51.0,29.36,North,0,0.0,2.0,80,0.00,,,0.00,,2013-03-11 11:22:00,
2013-03-11 11:32:00,57.0,51.0,29.35,West,270,0.0,3.0,80,0.00,,,0.00,,2013-03-11 11:32:00,
2013-03-11 11:42:00,57.0,51.0,29.35,West,270,0.0,3.0,80,0.00,,,0.00,,2013-03-11 11:42:00,
2013-03-11 11:53:00,57.0,51.0,29.35,SSE,157,2.0,2.0,80,0.00,,,0.00,,2013-03-11 11:53:00,
2013-03-11 12:02:00,57.0,51.0,29.35,NW,315,3.0,7.0,80,0.00,,,0.00,,2013-03-11 12:02:00,
2013-03-11 12:12:00,57.0,51.0,29.35,NW,315,3.0,7.0,80,0.00,,,0.00,,2013-03-11 12:12:00,
2013-03-11 12:22:00,57.0,51.0,29.35,NE,45,3.0,3.0,80,0.00,,,0.00,,2013-03-11 12:22:00,
2013-03-11 12:32:00,57.0,51.0,29.34,NE,51,0.0,4.0,81,0.00,,,0.00,,2013-03-11 12:32:00,
2013-03-11 12:43:00,57.0,51.0,29.34,NE,51,0.0,4.0,81,0.00,,,0.00,,2013-03-11 12:43:00,
2013-03-11 12:53:00,57.0,51.0,29.33,NNW,331,1.0,5.0,80,0.00,,,0.00,,2013-03-11 12:53:00,
2013-03-11 13:02:00,57.0,51.0,29.33,NE,45,7.0,7.0,81,0.00,,,0.00,,2013-03-11 13:02:00,
2013-03-11 13:12:00,57.0,51.0,29.33,NE,45,7.0,7.0,81,0.00,,,0.00,,2013-03-11 13:12:00,
2013-03-11 13:22:00,57.0,51.0,29.34,West,270,4.0,4.0,80,0.00,,,0.00,,2013-03-11 13:22:00,
2013-03-11 13:32:00,58.0,52.0,29.33,NNE,22,3.0,4.0,80,0.00,,,0.00,,2013-03-11 13:32:00,
2013-03-11 13:42:00,58.0,52.0,29.33,NNE,22,3.0,4.0,80,0.00,,,0.00,,2013-03-11 13:42:00,
2013-03-11 13:53:00,58.0,52.0,29.33,West,270,3.0,3.0,79,0.00,,,0.00,,2013-03-11 13:53:00,
2013-03-11 14:02:00,59.0,52.0,29.32,NNE,22,3.0,4.0,78,0.00,,,0.00,,2013-03-11 14:02:00,
2013-03-11 14:12:00,59.0,52.0,29.32,NNE,22,3.0,4.0,78,0.00,,,0.00,,2013-03-11 14:12:00,
2013-03-11 14:22:00,60.0,52.0,29.32,NNW,345,2.0,6.0,76,0.00,,,0.00,,2013-03-11 14:22:00,
2013-03-11 14:33:00,60.0,52.0,29.31,North,352,3.0,7.0,76,0.00,,,0.00,,2013-03-11 14:33:00,
2013-03-11 14:42:00,60.0,52.0,29.31,North,352,3.0,7.0,76,0.00,,,0.00,,2013-03-11 14:42:00,
2013-03-11 14:53:00,61.0,53.0,29.31,SW,225,1.0,4.0,74,0.00,,,0.00,,2013-03-11 14:53:00,
2013-03-11 15:02:00,61.0,52.0,29.31,North,0,5.0,5.0,73,0.00,,,0.00,,2013-03-11 15:02:00,
2013-03-11 15:12:00,61.0,52.0,29.31,North,0,5.0,5.0,73,0.00,,,0.00,,2013-03-11 15:12:00,
2013-03-11 15:22:00,61.0,52.0,29.31,NW,309,2.0,4.0,73,0.00,,,0.00,,2013-03-11 15:22:00,
2013-03-11 15:32:00,61.0,52.0,29.31,SE,142,3.0,3.0,72,0.00,,,0.00,,2013-03-11 15:32:00,
2013-03-11 15:42:00,61.0,52.0,29.31,SE,142,3.0,3.0,72,0.00,,,0.00,,2013-03-11 15:42:00,
2013-03-11 15:53:00,61.0,52.0,29.30,SW,225,1.0,4.0,72,0.00,,,0.00,,2013-03-11 15:53:00,
2013-03-11 16:02:00,61.0,52.0,29.29,SSE,157,1.0,3.0,72,0.00,,,0.00,,2013-03-11 16:02:00,
2013-03-11 16:12:00,61.0,52.0,29.29,SSE,157,1.0,3.0,72,0.00,,,0.00,,2013-03-11 16:12:00,
2013-03-11 16:22:00,61.0,52.0,29.29,NE,47,2.0,7.0,71,0.00,,,0.00,,2013-03-11 16:22:00,
2013-03-11 16:32:00,62.0,52.0,29.28,NE,45,1.0,6.0,71,0.00,,,0.00,,2013-03-11 16:32:00,
2013-03-11 16:43:00,62.0,52.0,29.28,NE,45,1.0,6.0,71,0.00,,,0.00,,2013-03-11 16:43:00,
2013-03-11 16:52:00,63.0,53.0,29.26,SSE,157,5.0,7.0,69,0.00,,,0.00,,2013-03-11 16:52:00,
2013-03-11 17:02:00,64.0,54.0,29.25,SW,225,0.0,5.0,69,0.00,,,0.00,,2013-03-11 17:02:00,
2013-03-11 17:15:00,64.0,54.0,29.25,SW,225,0.0,5.0,69,0.00,,,0.00,,2013-03-11 17:15:00,
2013-03-11 17:26:00,64.0,53.0,29.25,WNW,285,2.0,7.0,68,0.00,,,0.00,,2013-03-11 17:26:00,
2013-03-11 17:36:00,64.0,53.0,29.23,East,88,3.0,5.0,68,0.00,,,0.00,,2013-03-11 17:36:00,
2013-03-11 17:42:00,64.0,53.0,29.23,East,88,3.0,5.0,68,0.00,,,0.00,,2013-03-11 17:42:00,
2013-03-11 17:53:00,64.0,53.0,29.23,SE,135,2.0,3.0,68,0.00,,,0.00,,2013-03-11 17:53:00,
2013-03-11 18:02:00,64.0,53.0,29.22,SSW,202,1.0,5.0,68,0.00,,,0.00,,2013-03-11 18:02:00,
2013-03-11 18:12:00,64.0,53.0,29.22,SSW,202,1.0,5.0,68,0.00,,,0.00,,2013-03-11 18:12:00,
2013-03-11 18:23:00,64.0,53.0,29.22,NW,315,5.0,6.0,68,0.00,,,0.00,,2013-03-11 18:23:00,
2013-03-11 18:32:00,64.0,54.0,29.22,SE,130,2.0,5.0,69,0.00,,,0.00,,2013-03-11 18:32:00,
2013-03-11 18:42:00,64.0,54.0,29.22,SE,130,2.0,5.0,69,0.00,,,0.00,,2013-03-11 18:42:00,
2013-03-11 18:53:00,63.0,53.0,29.21,NW,315,5.0,5.0,71,0.00,,,0.00,,2013-03-11 18:53:00,
2013-03-11 19:02:00,62.0,55.0,29.23,North,0,3.0,4.0,77,0.02,,,0.02,,2013-03-11 19:02:00,
2013-03-11 19:12:00,62.0,55.0,29.23,North,0,3.0,4.0,77,0.02,,,0.02,,2013-03-11 19:12:00,
2013-03-11 19:22:00,60.0,54.0,29.22,North,0,0.0,0.0,82,0.04,,,0.04,,2013-03-11 19:22:00,
2013-03-11 19:33:00,59.0,54.0,29.24,NNE,22,7.0,7.0,85,0.06,,,0.06,,2013-03-11 19:33:00,
2013-03-11 19:42:00,59.0,54.0,29.24,NNE,22,7.0,7.0,85,0.06,,,0.06,,2013-03-11 19:42:00,
2013-03-11 19:53:00,56.0,52.0,29.24,NNW,337,5.0,6.0,85,0.22,,,0.22,,2013-03-11 19:53:00,
2013-03-11 20:02:00,54.0,50.0,29.24,North,0,0.0,3.0,86,0.31,,,0.33,,2013-03-11 20:02:00,
2013-03-11 20:12:00,54.0,50.0,29.24,North,0,0.0,3.0,86,0.31,,,0.33,,2013-03-11 20:12:00,
2013-03-11 20:22:00,54.0,50.0,29.23,NE,45,0.0,0.0,87,0.28,,,0.35,,2013-03-11 20:22:00,
2013-03-11 20:32:00,54.0,50.0,29.23,NE,45,0.0,0.0,87,0.31,,,0.39,,2013-03-11 20:32:00,
2013-03-11 20:43:00,54.0,50.0,29.23,NE,45,0.0,0.0,87,0.31,,,0.39,,2013-03-11 20:43:00,
2013-03-11 20:53:00,53.0,50.0,29.22,SE,135,0.0,0.0,88,0.22,,,0.45,,2013-03-11 20:53:00,
2013-03-11 21:03:00,53.0,50.0,29.23,SE,135,0.0,0.0,88,0.16,,,0.49,,2013-03-11 21:03:00,
2013-03-11 21:12:00,53.0,50.0,29.23,SE,135,0.0,0.0,88,0.16,,,0.49,,2013-03-11 21:12:00,
2013-03-11 21:22:00,53.0,50.0,29.21,SE,135,0.0,0.0,88,0.12,,,0.49,,2013-03-11 21:22:00,
2013-03-11 21:32:00,53.0,50.0,29.22,SE,135,0.0,0.0,89,0.12,,,0.51,,2013-03-11 21:32:00,
2013-03-11 21:44:00,53.0,50.0,29.22,SE,135,0.0,0.0,89,0.12,,,0.51,,2013-03-11 21:44:00,
2013-03-11 21:53:00,53.0,50.0,29.22,SE,135,0.0,0.0,89,0.12,,,0.57,,2013-03-11 21:53:00,
2013-03-11 22:03:00,53.0,50.0,29.23,SE,135,0.0,0.0,89,0.14,,,0.63,,2013-03-11 22:03:00,
2013-03-11 22:12:00,53.0,50.0,29.23,SE,135,0.0,0.0,89,0.14,,,0.63,,2013-03-11 22:12:00,
2013-03-11 22:22:00,53.0,50.0,29.22,SE,135,0.0,0.0,89,0.20,,,0.71,,2013-03-11 22:22:00,
2013-03-11 22:32:00,53.0,50.0,29.21,SE,135,0.0,0.0,90,0.22,,,0.75,,2013-03-11 22:32:00,
2013-03-11 22:43:00,53.0,50.0,29.21,SE,135,0.0,0.0,90,0.22,,,0.75,,2013-03-11 22:43:00,
2013-03-11 22:53:00,53.0,50.0,29.19,East,90,0.0,0.0,90,0.22,,,0.80,,2013-03-11 22:53:00,
2013-03-11 23:03:00,52.0,49.0,29.18,South,189,1.0,2.0,90,0.18,,,0.82,,2013-03-11 23:03:00,
2013-03-11 23:12:00,52.0,49.0,29.18,South,189,1.0,2.0,90,0.18,,,0.82,,2013-03-11 23:12:00,
2013-03-11 23:22:00,52.0,49.0,29.19,NNE,22,0.0,0.0,91,0.10,,,0.84,,2013-03-11 23:22:00,
2013-03-11 23:32:00,52.0,49.0,29.20,NNE,22,0.0,0.0,91,0.14,,,0.90,,2013-03-11 23:32:00,
2013-03-11 23:43:00,52.0,49.0,29.21,NNE,22,0.0,0.0,91,0.16,,,0.96,,2013-03-11 23:43:00,
2013-03-11 23:53:00,52.0,49.0,29.21,NNE,22,0.0,0.0,91,0.16,,,0.96,,2013-03-11 23:53:00,